Fayetteville, Georgia, United States (30214)
Lat: 33.45N, Lon: 84.45W
Wx Zone: GAZ054
Local Info
Past Weather Observations for Today

NOTE: This archive is for the closest National Weather Service station to Fayetteville. Information may differ from the station used for current weather conditions.

Click here for Long-term Archive

Time Weather Temperature Dewpoint Humidity Pressure Winds Precip Visibility
17:53
Clear
82°F / 28°C 66°F / 19°C 58% 30.09 in
(1019 mb)
Calm - 10SM
16:53
Clear
84°F / 29°C 66°F / 19°C 55% 30.12 in
(1020 mb)
SSW 6.9 mph
(SSW 11 kph)
- 10SM
15:53
Partly Cloudy
84°F / 29°C 68°F / 20°C 58% 30.12 in
(1020 mb)
SSW 3.5 mph
(SSW 6 kph)
- 10SM
14:53
Partly Cloudy
84°F / 29°C 66°F / 19°C 55% 30.12 in
(1020 mb)
Variable 3.5 mph
(Variable 6 kph)
- 10SM
13:53
Partly Cloudy
82°F / 28°C 64°F / 18°C 55% 30.15 in
(1021 mb)
NW 8.1 mph
(NW 13 kph)
- 10SM
12:53
Partly Cloudy
82°F / 28°C 66°F / 19°C 58% 30.15 in
(1021 mb)
SW 4.6 mph
(SW 7 kph)
- 10SM
11:53
Mostly Cloudy
81°F / 27°C 70°F / 21°C 70% 30.18 in
(1022 mb)
W 5.8 mph
(W 9 kph)
- 10SM
11:06
Partly Cloudy
79°F / 26°C 68°F / 20°C 70% 30.15 in
(1021 mb)
SSW 6.9 mph
(SSW 11 kph)
- 10SM
10:53
Mostly Cloudy
77°F / 25°C 66°F / 19°C 69% 30.18 in
(1022 mb)
WNW 6.9 mph
(WNW 11 kph)
- 10SM
09:53
Mostly Cloudy
75°F / 24°C 68°F / 20°C 78% 30.15 in
(1021 mb)
Calm - 10SM
09:43
Mostly Cloudy
75°F / 24°C 70°F / 21°C 83% 30.15 in
(1021 mb)
SSW 6.9 mph
(SSW 11 kph)
- 10SM
08:53
Overcast
72°F / 22°C 68°F / 20°C 88% 30.18 in
(1022 mb)
SSW 5.8 mph
(SSW 9 kph)
0.00 in
(0.00 mm)
10SM
08:33
Overcast
Light Rain
72°F / 22°C 68°F / 20°C 88% 30.18 in
(1022 mb)
SSW 5.8 mph
(SSW 9 kph)
0.00 in
(0.00 mm)
10SM
08:19
Overcast
Light Rain
70°F / 21°C 68°F / 20°C 94% 30.18 in
(1022 mb)
Variable 4.6 mph
(Variable 7 kph)
0.00 in
(0.00 mm)
10SM
07:53
Overcast
70°F / 21°C 68°F / 20°C 94% 30.18 in
(1022 mb)
Variable 3.5 mph
(Variable 6 kph)
- 10SM
07:36
Overcast
70°F / 21°C 68°F / 20°C 94% 30.15 in
(1021 mb)
Calm - 10SM
07:20
Overcast
70°F / 21°C 66°F / 19°C 88% 30.15 in
(1021 mb)
Calm - 10SM
06:53
Mostly Cloudy
70°F / 21°C 66°F / 19°C 88% 30.15 in
(1021 mb)
Calm - 10SM
06:44
Overcast
70°F / 21°C 66°F / 19°C 88% 30.15 in
(1021 mb)
Calm - 10SM
06:06
Overcast
70°F / 21°C 66°F / 19°C 88% 30.15 in
(1021 mb)
Calm - 8SM
05:53
Overcast
70°F / 21°C 66°F / 19°C 88% 30.15 in
(1021 mb)
Calm - 8SM
04:53
Overcast
70°F / 21°C 66°F / 19°C 88% 30.12 in
(1020 mb)
Calm - 8SM
04:20
Mostly Cloudy
70°F / 21°C 66°F / 19°C 88% 30.12 in
(1020 mb)
Calm - 10SM
03:53
Partly Cloudy
70°F / 21°C 66°F / 19°C 88% 30.12 in
(1020 mb)
Calm 0.00 in
(0.00 mm)
10SM
02:53
Mostly Cloudy
70°F / 21°C 66°F / 19°C 88% 30.09 in
(1019 mb)
Calm - 10SM
01:53
Clear
70°F / 21°C 66°F / 19°C 88% 30.09 in
(1019 mb)
Calm - 10SM
00:53
Clear
70°F / 21°C 66°F / 19°C 88% 30.09 in
(1019 mb)
Variable 3.5 mph
(Variable 6 kph)
- 10SM
Time Weather Temperature Dewpoint Humidity Pressure Winds Precip Visibility


Weather for websites

WeatherForYou.com, LLC is not responsible for any damages or problems caused by this service. Current weather conditions are obtained from the closest station including government and personal stations which may have varying degrees of accuracy. Weather forecasts are derived from the NOAA NDFD. Like all things, this site belongs to Jesus Christ... He just trusts us to maintain it. If you have any questions or comments email webmaster@weatherforyou.com

Copyright © 2015, WeatherForYou.com LLC. All rights reserved.